Location: Unspecified
(0.0000°N, 0.0000°E)
Time: 11:37:09
(UTC+00:00)

Envisat - Pass Details

Date: 24 May 2020
Orbit: 764 x 766 km, 98.1° (Epoch: 30 May)

Event Time Altitude Azimuth Distance (km) Brightness Sun altitude
Rises 05:27:29 0° 27° (NNE) 3,214 7.1 -6.9°
Reaches altitude 10° 05:29:56 10° 36° (NE) 2,291 6.5 -6.3°
Maximum altitude 05:34:34 37° 102° (ESE) 1,177 4.6 -5.2°
Drops below altitude 10° 05:39:12 10° 169° (SSE) 2,301 5.4 -4.1°
Sets 05:41:39 0° 177° (S) 3,230 6.1 -3.6°
